TUP9664 UUBW-UUWW

Flight info

Callsign TUP9664
Flight time N/A
Altitude 10000
Route K0615F100 ANDIF DCT IMZUP DCT GEGNA DCT KIBUR DCT LO DCT BEMAS DCT TEBDI DCT TEPTA DCT RONEZ DCT TOLKE DCT TADUT DCT FIDOT DCT RORUK
Aircraft B752/M-SDE2E3FGHIJ3J4J7RWXY/LB1

Departure

Time 2026-05-07 17:18
Airport Zhukovsky International Airport (UUBW)

Arrival

Time N/A
Airport Vnukovo International Airport (UUWW)
Time Latitude Longitude Altitude Speed Heading
2026-05-07 17:05 55.56029 38.12462 387 ft 0 kts 132°
2026-05-07 17:12 55.56033 38.12454 387 ft 2 kts 132°
2026-05-07 17:12 55.56043 38.12435 387 ft 2 kts 132°
2026-05-07 17:13 55.56053 38.12415 387 ft 1 kts 132°
2026-05-07 17:13 55.56060 38.12401 387 ft 3 kts 130°
2026-05-07 17:13 55.56068 38.12374 387 ft 2 kts 89°
2026-05-07 17:13 55.56063 38.12351 387 ft 1 kts 47°
2026-05-07 17:14 55.56062 38.12349 387 ft 0 kts 46°
2026-05-07 17:15 55.56065 38.12351 387 ft 1 kts 28°
2026-05-07 17:15 55.56100 38.12374 387 ft 9 kts 23°
2026-05-07 17:16 55.56147 38.12439 387 ft 8 kts 42°
2026-05-07 17:16 55.56182 38.12500 387 ft 3 kts 66°
2026-05-07 17:16 55.56177 38.12562 387 ft 7 kts 116°
2026-05-07 17:16 55.56144 38.12639 387 ft 7 kts 131°
2026-05-07 17:17 55.56113 38.12705 387 ft 5 kts 119°
2026-05-07 17:17 55.56122 38.12805 387 ft 13 kts 52°
2026-05-07 17:17 55.56201 38.12936 387 ft 15 kts 41°
2026-05-07 17:17 55.56221 38.13111 387 ft 25 kts 126°
2026-05-07 17:18 55.55956 38.13642 387 ft 91 kts 130°
2026-05-07 17:18 55.55397 38.14750 390 ft 151 kts 131°
2026-05-07 17:18 55.54642 38.16279 661 ft 180 kts 129°
2026-05-07 17:18 55.53789 38.17904 1430 ft 183 kts 146°
2026-05-07 17:19 55.52568 38.18366 1943 ft 190 kts 202°
2026-05-07 17:19 55.51630 38.16998 2663 ft 181 kts 251°
2026-05-07 17:19 55.51375 38.14801 3300 ft 185 kts 258°
2026-05-07 17:19 55.51138 38.12751 4263 ft 173 kts 259°
2026-05-07 17:20 55.50972 38.10506 4675 ft 193 kts 261°
2026-05-07 17:20 55.50785 38.08087 5185 ft 208 kts 260°
2026-05-07 17:20 55.50579 38.05508 5890 ft 214 kts 260°
2026-05-07 17:20 55.50365 38.02905 6391 ft 226 kts 260°
2026-05-07 17:21 55.50161 38.00169 6704 ft 219 kts 261°
2026-05-07 17:21 55.49975 37.97458 7009 ft 237 kts 261°
2026-05-07 17:21 55.49755 37.94365 7019 ft 263 kts 261°
2026-05-07 17:21 55.49516 37.91000 7022 ft 294 kts 261°
2026-05-07 17:22 55.49250 37.87259 7010 ft 313 kts 261°
2026-05-07 17:22 55.48981 37.83482 6996 ft 311 kts 261°
2026-05-07 17:22 55.48709 37.79691 6997 ft 312 kts 261°
2026-05-07 17:22 55.48434 37.75888 6995 ft 312 kts 261°
2026-05-07 17:23 55.48159 37.72093 6991 ft 312 kts 261°
2026-05-07 17:23 55.47880 37.68272 6991 ft 312 kts 261°
2026-05-07 17:23 55.47606 37.64531 6993 ft 313 kts 261°
2026-05-07 17:23 55.47323 37.60692 6992 ft 313 kts 261°
2026-05-07 17:24 55.47042 37.56897 6993 ft 312 kts 261°
2026-05-07 17:24 55.46760 37.53109 6702 ft 319 kts 261°
2026-05-07 17:24 55.46473 37.49250 6218 ft 312 kts 261°
2026-05-07 17:24 55.46194 37.45527 5722 ft 303 kts 261°
2026-05-07 17:25 55.45920 37.41896 5239 ft 303 kts 261°
2026-05-07 17:25 55.45642 37.38224 4750 ft 304 kts 262°
2026-05-07 17:25 55.45363 37.34545 4283 ft 303 kts 261°
2026-05-07 17:25 55.45084 37.30882 3779 ft 301 kts 261°
2026-05-07 17:26 55.44804 37.27227 3303 ft 301 kts 262°
2026-05-07 17:26 55.44527 37.23634 3017 ft 291 kts 262°
2026-05-07 17:26 55.44264 37.20207 2983 ft 274 kts 262°
2026-05-07 17:26 55.44125 37.16968 2975 ft 256 kts 277°
2026-05-07 17:27 55.44729 37.14196 2996 ft 239 kts 305°
2026-05-07 17:27 55.45861 37.12064 3008 ft 238 kts 312°
2026-05-07 17:27 55.47022 37.10081 2989 ft 228 kts 314°
2026-05-07 17:27 55.48150 37.08246 2979 ft 214 kts 314°
2026-05-07 17:28 55.49291 37.06679 3003 ft 199 kts 331°
2026-05-07 17:28 55.50576 37.05818 3008 ft 193 kts 335°
2026-05-07 17:28 55.51753 37.05071 2916 ft 171 kts 335°
2026-05-07 17:28 55.52878 37.04423 2740 ft 174 kts 349°
2026-05-07 17:29 55.54070 37.04866 2614 ft 186 kts 32°
2026-05-07 17:29 55.54854 37.06673 2511 ft 189 kts 68°
2026-05-07 17:29 55.55277 37.08839 2484 ft 180 kts 68°
2026-05-07 17:29 55.55698 37.10789 2237 ft 164 kts 66°
2026-05-07 17:30 55.56097 37.12587 1997 ft 149 kts 65°
2026-05-07 17:30 55.56471 37.14249 1813 ft 146 kts 65°
2026-05-07 17:31 55.57651 37.19467 1231 ft 146 kts 66°
2026-05-07 17:31 55.58271 37.22176 934 ft 147 kts 68°
2026-05-07 17:31 55.58641 37.23853 733 ft 147 kts 68°
2026-05-07 17:32 55.59006 37.25463 693 ft 128 kts 68°
2026-05-07 17:32 55.59257 37.26594 692 ft 67 kts 67°